When you browse on this site, cookies collect data to enhance your experience and personalize the content and advertising you see.
Visit our Privacy Policy to learn more. By continuing to use the site, you agree to this use of cookies and data.
  • In Hungary
  • List of Countries
  • For 7 days
  • Water Temperature
  • Satellite Maps
  • Weather Map
  • News
  • Weather Widgets
  • user-avatar
    Login

    Hourly Weather Montclair

    Today, 23 July, Tuesday

    Time Temperature Precipitation Wind Pressure Humidity
    00:00 +25°C° 1.3 mm 1 mps 746 mmHg 84%
    01:00 +25°C° 0 mm 1 mps 746 mmHg 88%
    02:00 +24°C° 1.9 mm 2 mps 746 mmHg 87%
    03:00 +22°C° 1.9 mm 3 mps 746 mmHg 86%
    04:00 +22°C° 1.9 mm 4 mps 745 mmHg 85%
    05:00 +21°C° 3.9 mm 4 mps 746 mmHg 86%
    06:00 +21°C° 3.9 mm 4 mps 746 mmHg 87%
    07:00 +20°C° 3.9 mm 4 mps 746 mmHg 88%
    08:00 +21°C° 0.4 mm 4 mps 746 mmHg 82%
    09:00 +22°C° 0.4 mm 3 mps 747 mmHg 77%
    10:00 +24°C° 0.4 mm 3 mps 747 mmHg 71%
    11:00 +24°C° 0 mm 3 mps 748 mmHg 70%
    12:00 +24°C° 0 mm 3 mps 748 mmHg 68%
    13:00 +25°C° 0 mm 2 mps 749 mmHg 66%
    14:00 +25°C° 0 mm 2 mps 749 mmHg 65%
    15:00 +25°C° 0 mm 2 mps 749 mmHg 65%
    16:00 +25°C° 0 mm 1 mps 749 mmHg 64%
    17:00 +25°C° 0.3 mm 1 mps 749 mmHg 66%
    18:00 +24°C° 0.3 mm 1 mps 749 mmHg 68%
    19:00 +24°C° 0.3 mm 1 mps 749 mmHg 71%
    20:00 +24°C° 1.1 mm 1 mps 749 mmHg 72%
    21:00 +23°C° 1.1 mm 1 mps 750 mmHg 74%
    22:00 +23°C° 1.1 mm 1 mps 750 mmHg 76%
    23:00 +23°C° 0.8 mm 1 mps 750 mmHg 78%

    Tomorrow, 24 July, Wednesday

    Time Temperature Precipitation Wind Pressure Humidity
    00:00 +23°C° 0.8 mm 1 mps 750 mmHg 79%
    01:00 +22°C° 0.8 mm 1 mps 750 mmHg 80%
    02:00 +21°C° 0.3 mm 2 mps 750 mmHg 80%
    03:00 +21°C° 0.3 mm 2 mps 749 mmHg 80%
    04:00 +21°C° 0.3 mm 2 mps 749 mmHg 79%
    05:00 +21°C° 0 mm 2 mps 750 mmHg 77%
    06:00 +21°C° 0 mm 3 mps 750 mmHg 74%
    07:00 +22°C° 0 mm 3 mps 751 mmHg 71%
    08:00 +24°C° 0 mm 3 mps 751 mmHg 63%
    09:00 +26°C° 0 mm 3 mps 751 mmHg 56%
    10:00 +27°C° 0 mm 3 mps 751 mmHg 48%
    11:00 +28°C° 0 mm 3 mps 751 mmHg 46%
    12:00 +29°C° 0 mm 2 mps 751 mmHg 43%
    13:00 +30°C° 0 mm 2 mps 751 mmHg 41%
    14:00 +29°C° 0 mm 2 mps 751 mmHg 42%
    15:00 +29°C° 0 mm 2 mps 751 mmHg 43%
    16:00 +29°C° 0 mm 2 mps 751 mmHg 44%
    17:00 +28°C° 0 mm 2 mps 751 mmHg 48%
    18:00 +27°C° 0 mm 2 mps 752 mmHg 52%
    19:00 +26°C° 0 mm 2 mps 752 mmHg 56%
    20:00 +25°C° 0 mm 1 mps 752 mmHg 59%
    21:00 +25°C° 0 mm 1 mps 753 mmHg 61%
    22:00 +24°C° 0 mm 1 mps 753 mmHg 64%
    23:00 +24°C° 0 mm 1 mps 753 mmHg 64%

    Day after tomorrow, 25 July, Thursday

    Time Temperature Precipitation Wind Pressure Humidity
    00:00 +23°C° 0 mm 1 mps 753 mmHg 64%
    01:00 +23°C° 0 mm 1 mps 753 mmHg 64%
    02:00 +23°C° 0 mm 1 mps 754 mmHg 63%
    03:00 +22°C° 0 mm 1 mps 754 mmHg 62%
    04:00 +22°C° 0 mm 1 mps 754 mmHg 60%
    05:00 +23°C° 0 mm 1 mps 754 mmHg 58%
    06:00 +23°C° 0 mm 1 mps 755 mmHg 56%
    07:00 +24°C° 0 mm 2 mps 755 mmHg 55%
    08:00 +26°C° 0 mm 1 mps 755 mmHg 49%
    09:00 +28°C° 0 mm 1 mps 755 mmHg 43%
    10:00 +30°C° 0 mm 1 mps 756 mmHg 38%
    11:00 +31°C° 0 mm 1 mps 756 mmHg 35%
    12:00 +32°C° 0 mm 1 mps 755 mmHg 33%
    13:00 +33°C° 0 mm 1 mps 755 mmHg 30%
    14:00 +32°C° 0 mm 1 mps 755 mmHg 32%
    15:00 +31°C° 0 mm 2 mps 755 mmHg 34%
    16:00 +31°C° 0 mm 2 mps 755 mmHg 36%
    17:00 +30°C° 0 mm 2 mps 755 mmHg 40%
    18:00 +29°C° 0 mm 2 mps 756 mmHg 45%
    19:00 +28°C° 0 mm 2 mps 756 mmHg 50%
    20:00 +27°C° 0 mm 2 mps 756 mmHg 52%
    21:00 +26°C° 0 mm 2 mps 757 mmHg 55%
    22:00 +26°C° 0 mm 2 mps 757 mmHg 57%
    23:00 +25°C° 0 mm 2 mps 757 mmHg 60%

    26 July, Friday

    Time Temperature Precipitation Wind Pressure Humidity
    00:00 +25°C° 0 mm 1 mps 757 mmHg 62%
    01:00 +24°C° 0 mm 1 mps 757 mmHg 64%
    02:00 +24°C° 0 mm 1 mps 757 mmHg 65%
    03:00 +24°C° 0 mm 1 mps 757 mmHg 66%
    04:00 +23°C° 0 mm 1 mps 757 mmHg 67%
    05:00 +24°C° 0 mm 1 mps 758 mmHg 64%
    06:00 +25°C° 0 mm 1 mps 758 mmHg 61%
    07:00 +25°C° 0 mm 1 mps 759 mmHg 58%
    08:00 +27°C° 0 mm 1 mps 759 mmHg 52%
    09:00 +28°C° 0 mm 0 mps 759 mmHg 46%
    10:00 +30°C° 0 mm 0 mps 759 mmHg 40%
    11:00 +33°C° 0 mm 1 mps 759 mmHg 37%
    12:00 +34°C° 0 mm 1 mps 759 mmHg 34%
    13:00 +35°C° 0 mm 1 mps 759 mmHg 31%
    14:00 +35°C° 0 mm 2 mps 759 mmHg 33%
    15:00 +34°C° 0 mm 2 mps 758 mmHg 36%
    16:00 +33°C° 0 mm 3 mps 758 mmHg 39%
    17:00 +31°C° 0 mm 3 mps 758 mmHg 44%
    18:00 +30°C° 0 mm 3 mps 758 mmHg 48%
    19:00 +29°C° 0 mm 3 mps 759 mmHg 52%
    20:00 +28°C° 0 mm 3 mps 759 mmHg 54%
    21:00 +27°C° 0 mm 3 mps 759 mmHg 56%
    22:00 +27°C° 0 mm 3 mps 760 mmHg 58%
    23:00 +26°C° 0 mm 2 mps 759 mmHg 59%

    27 July, Saturday

    Time Temperature Precipitation Wind Pressure Humidity
    00:00 +26°C° 0 mm 2 mps 759 mmHg 60%
    01:00 +25°C° 0 mm 2 mps 759 mmHg 62%
    02:00 +25°C° 0 mm 2 mps 759 mmHg 64%
    03:00 +25°C° 0 mm 1 mps 759 mmHg 65%
    04:00 +24°C° 0 mm 1 mps 759 mmHg 67%
    05:00 +25°C° 0 mm 1 mps 760 mmHg 65%
    06:00 +26°C° 0 mm 1 mps 760 mmHg 63%
    07:00 +26°C° 0 mm 1 mps 760 mmHg 61%
    08:00 +28°C° 0 mm 1 mps 760 mmHg 55%
    09:00 +30°C° 0 mm 1 mps 760 mmHg 49%
    10:00 +32°C° 0 mm 1 mps 760 mmHg 43%
    11:00 +32°C° 0 mm 2 mps 760 mmHg 41%
    12:00 +34°C° 0 mm 3 mps 760 mmHg 38%
    13:00 +34°C° 0 mm 4 mps 759 mmHg 36%
    14:00 +33°C° 0 mm 4 mps 759 mmHg 37%
    15:00 +33°C° 0 mm 3 mps 759 mmHg 39%
    16:00 +31°C° 0 mm 3 mps 759 mmHg 40%
    17:00 +30°C° 0 mm 3 mps 758 mmHg 43%
    18:00 +29°C° 0 mm 3 mps 758 mmHg 47%
    19:00 +27°C° 0 mm 3 mps 758 mmHg 50%
    20:00 +27°C° 0 mm 3 mps 759 mmHg 52%
    21:00 +26°C° 0 mm 3 mps 759 mmHg 55%
    22:00 +26°C° 0 mm 2 mps 759 mmHg 57%
    23:00 +25°C° 0 mm 2 mps 759 mmHg 59%

    28 July, Sunday

    Time Temperature Precipitation Wind Pressure Humidity
    00:00 +25°C° 0 mm 1 mps 759 mmHg 60%
    01:00 +25°C° 0 mm 1 mps 759 mmHg 62%
    02:00 +24°C° 0 mm 1 mps 759 mmHg 64%
    03:00 +24°C° 0 mm 1 mps 759 mmHg 65%
    04:00 +24°C° 0 mm 1 mps 759 mmHg 67%
    05:00 +24°C° 0 mm 1 mps 759 mmHg 65%
    06:00 +23°C° 0 mm 0 mps 759 mmHg 63%
    07:00 +24°C° 0 mm 0 mps 759 mmHg 61%
    08:00 +28°C° 0 mm 1 mps 759 mmHg 55%
    09:00 +30°C° 0 mm 1 mps 759 mmHg 48%
    10:00 +32°C° 0 mm 1 mps 759 mmHg 42%
    11:00 +33°C° 0 mm 1 mps 758 mmHg 40%
    12:00 +34°C° 0 mm 2 mps 758 mmHg 37%
    13:00 +35°C° 0 mm 3 mps 757 mmHg 34%
    14:00 +34°C° 0 mm 3 mps 757 mmHg 36%
    15:00 +34°C° 0 mm 3 mps 757 mmHg 38%
    16:00 +33°C° 0 mm 3 mps 757 mmHg 39%
    17:00 +31°C° 0 mm 3 mps 756 mmHg 44%
    18:00 +30°C° 0 mm 3 mps 756 mmHg 49%
    19:00 +28°C° 0 mm 3 mps 756 mmHg 53%
    20:00 +28°C° 0 mm 3 mps 756 mmHg 55%
    21:00 +27°C° 0 mm 3 mps 757 mmHg 57%
    22:00 +27°C° 0 mm 3 mps 757 mmHg 59%
    23:00 +26°C° 0 mm 2 mps 757 mmHg 61%
    Show more